[TLELIST] Archives

 

[TLELIST] Current TLEs

April 4th 2023 PDT

HST 1 20580U 90037B 23094.25958622 .00006216 00000-0 33650-3 0 9996 2 20580 28.4704 39.6800 0002479 300.3116 177.0720 15.12597832610514 ISS (ZARYA) 1 25544U 98067A 23094.26313126 .00022095 00000-0 40092-3 0 9998 2 25544 51.6427 334.8287 0006969 152.2732 348.9727 15.49487983390329 CXO 1 25867U 99040B 23096.56659145 .00001147 00000-0 00000+0 0 9993 2 25867 38.4002 205.8553 9033590 255.1087 0.2070 0.37818440 24068 ...Continue Reading

[TLELIST] Current TLEs

April 3rd 2023 PDT

HST 1 20580U 90037B 23092.34889014 .00006634 00000-0 36004-3 0 9992 2 20580 28.4702 52.3797 0002490 279.0789 213.2901 15.12575827609961 ISS (ZARYA) 1 25544U 98067A 23093.16814089 .00023718 00000-0 43035-3 0 9993 2 25544 51.6437 340.2539 0006821 148.5611 0.7271 15.49443646390158 CXO 1 25867U 99040B 23093.92214460 .00001150 00000-0 00000-0 0 9992 2 25867 38.4450 206.2020 9035378 254.8397 0.1854 0.37814949 12904 ...Continue Reading

[TLELIST] Current TLEs

April 2nd 2023 PDT

HST 1 20580U 90037B 23092.27903012 .00006611 00000-0 35874-3 0 9998 2 20580 28.4703 52.8441 0002491 278.3262 192.8800 15.12574872610211 ISS (ZARYA) 1 25544U 98067A 23092.46085029 .00023404 00000-0 42526-3 0 9995 2 25544 51.6427 343.7517 0007074 145.3107 16.1565 15.49410436390043 CXO 1 25867U 99040B 23093.92214460 .00001150 00000-0 00000-0 0 9992 2 25867 38.4450 206.2020 9035378 254.8397 0.1854 0.37814949 12904 ...Continue Reading

[TLELIST] Current TLEs

April 1st 2023 PDT

HST 1 20580U 90037B 23090.36833889 .00007234 00000-0 39375-3 0 9992 2 20580 28.4703 65.5431 0002529 255.5597 230.8221 15.12551341609923 ISS (ZARYA) 1 25544U 98067A 23091.23198343 .00023540 00000-0 42854-3 0 9998 2 25544 51.6420 349.8358 0007165 140.8187 1.7826 15.49352136389854 CXO 1 25867U 99040B 23091.27701294 .00001094 00000-0 00000-0 0 9991 2 25867 38.4958 206.5694 9035758 254.5403 0.1143 0.37812581 12882 ...Continue Reading

[TLELIST] Current TLEs

March 31st 2023 PDT

HST 1 20580U 90037B 23089.38356977 .00007014 00000-0 38162-3 0 9999 2 20580 28.4702 72.0882 0002549 244.0947 269.4060 15.12538777609511 ISS (ZARYA) 1 25544U 98067A 23090.26496853 -.00121133 00000-0 -22031-2 0 9990 2 25544 51.6415 354.6230 0007256 134.2299 11.1855 15.49243653389707 CXO 1 25867U 99040B 23091.27701294 .00001094 00000-0 00000-0 0 9991 2 25867 38.4958 206.5694 9035758 254.5403 0.1143 0.37812581 12882 ...Continue Reading

[TLELIST] Current TLEs

March 30th 2023 PDT

HST 1 20580U 90037B 23089.29486789 .00006769 00000-0 36797-3 0 9992 2 20580 28.4702 72.6777 0002547 243.0386 146.5087 15.12537277609769 ISS (ZARYA) 1 25544U 98067A 23089.35406344 .00030332 00000-0 54083-3 0 9995 2 25544 51.6427 359.1282 0006014 149.8412 311.0895 15.49805318389569 CXO 1 25867U 99040B 23091.27701294 .00001094 00000-0 00000-0 0 9991 2 25867 38.4958 206.5694 9035758 254.5403 0.1143 0.37812581 12882 ...Continue Reading

[TLELIST] Current TLEs

March 29th 2023 PDT

HST 1 20580U 90037B 23087.73748109 .00006241 00000-0 33866-3 0 9995 2 20580 28.4698 83.0279 0002611 224.5818 307.9891 15.12517903609267 ISS (ZARYA) 1 25544U 98067A 23088.46018744 .00049479 00000-0 87606-3 0 9998 2 25544 51.6432 3.5570 0005809 146.3940 4.1326 15.49773635389424 CXO 1 25867U 99040B 23088.63222900 .00000995 00000-0 00000-0 0 9998 2 25867 38.5354 206.8832 9034986 254.2848 0.0962 0.37809050 12887 ...Continue Reading

[TLELIST] Current TLEs

March 29th 2023 PDT

HST 1 20580U 90037B 23087.73748109 .00006241 00000-0 33866-3 0 9995 2 20580 28.4698 83.0279 0002611 224.5818 307.9891 15.12517903609267 ISS (ZARYA) 1 25544U 98067A 23088.46018744 .00049479 00000-0 87606-3 0 9998 2 25544 51.6432 3.5570 0005809 146.3940 4.1326 15.49773635389424 CXO 1 25867U 99040B 23088.63222900 .00000995 00000-0 00000-0 0 9998 2 25867 38.5354 206.8832 9034986 254.2848 0.0962 0.37809050 12887 ...Continue Reading

[TLELIST] Current TLEs

March 28th 2023 PDT

HST 1 20580U 90037B 23086.74724642 .00005771 00000-0 31245-3 0 9997 2 20580 28.4697 89.6090 0002651 213.5704 316.4145 15.12505681609116 ISS (ZARYA) 1 25544U 98067A 23087.49332566 .00022535 00000-0 40622-3 0 9992 2 25544 51.6427 8.3435 0005908 141.1668 11.6352 15.49668820389275 CXO 1 25867U 99040B 23088.63222900 .00000995 00000-0 00000-0 0 9998 2 25867 38.5354 206.8832 9034986 254.2848 0.0962 0.37809050 12887 ...Continue Reading

[TLELIST] Current TLEs

March 27th 2023 PDT

HST 1 20580U 90037B 23085.75673499 .00005958 00000-0 32305-3 0 9995 2 20580 28.4694 96.1918 0002684 202.9815 322.9489 15.12494818608960 ISS (ZARYA) 1 25544U 98067A 23086.33125476 .00024988 00000-0 45015-3 0 9999 2 25544 51.6429 14.0948 0005803 135.8715 9.8026 15.49623065389096 CXO 1 25867U 99040B 23088.63143607 .00000995 00000-0 00000-0 0 9994 2 25867 38.5382 206.8915 9034989 254.2761 359.9887 0.37810866 12875 ...Continue Reading
  • This mailing list is a public mailing list - anyone may join or leave, at any time.
  • This mailing list is announce-only.

International Space Station (ISS) / Hubble Space Telescope (HST) / Chandra X-Ray Observatory Orbital Data via EMAIL

Privacy Policy:

Private list